When you browse on this site, cookies collect data to enhance your experience and personalize the content and advertising you see.
Visit our Privacy Policy to learn more. By continuing to use the site, you agree to this use of cookies and data.
  • In Sweden
  • List of Countries
  • For 7 days
  • Water Temperature
  • Weather Map
  • Weather Widgets
  • user-avatar
    Login

    Hourly Weather Setropie

    Today, 22 October, Tuesday

    Time Temperature Precipitation Wind Pressure Humidity
    00:00 +15°C° 0 mm 2 mps 753 mmHg 81%
    01:00 +15°C° 0 mm 2 mps 754 mmHg 79%
    02:00 +14°C° 0 mm 2 mps 754 mmHg 82%
    03:00 +14°C° 0 mm 2 mps 754 mmHg 84%
    04:00 +14°C° 0 mm 1 mps 754 mmHg 86%
    05:00 +14°C° 0 mm 1 mps 754 mmHg 87%
    06:00 +14°C° 0 mm 1 mps 754 mmHg 88%
    07:00 +13°C° 0 mm 1 mps 755 mmHg 86%
    08:00 +15°C° 0 mm 1 mps 755 mmHg 81%
    09:00 +16°C° 0 mm 1 mps 755 mmHg 75%
    10:00 +19°C° 0 mm 1 mps 755 mmHg 70%
    11:00 +20°C° 0 mm 1 mps 755 mmHg 66%
    12:00 +21°C° 0 mm 1 mps 755 mmHg 62%
    13:00 +22°C° 0 mm 1 mps 755 mmHg 59%
    14:00 +21°C° 0 mm 1 mps 755 mmHg 62%
    15:00 +20°C° 0 mm 1 mps 754 mmHg 64%
    16:00 +19°C° 0 mm 1 mps 754 mmHg 67%
    17:00 +19°C° 0 mm 1 mps 754 mmHg 70%
    18:00 +18°C° 0 mm 1 mps 754 mmHg 73%
    19:00 +16°C° 0 mm 1 mps 755 mmHg 75%
    20:00 +16°C° 0 mm 1 mps 755 mmHg 77%
    21:00 +15°C° 0 mm 2 mps 754 mmHg 78%
    22:00 +15°C° 0 mm 2 mps 754 mmHg 79%
    23:00 +15°C° 0 mm 2 mps 755 mmHg 82%

    Tomorrow, 23 October, Wednesday

    Time Temperature Precipitation Wind Pressure Humidity
    00:00 +14°C° 0 mm 2 mps 755 mmHg 85%
    01:00 +14°C° 0 mm 2 mps 755 mmHg 89%
    02:00 +13°C° 0 mm 1 mps 755 mmHg 90%
    03:00 +13°C° 0 mm 1 mps 755 mmHg 91%
    04:00 +12°C° 0 mm 1 mps 755 mmHg 92%
    05:00 +12°C° 0 mm 1 mps 755 mmHg 92%
    06:00 +12°C° 0 mm 1 mps 754 mmHg 92%
    07:00 +12°C° 0 mm 1 mps 754 mmHg 92%
    08:00 +13°C° 0 mm 1 mps 754 mmHg 85%
    09:00 +15°C° 0 mm 1 mps 754 mmHg 78%
    10:00 +16°C° 0 mm 1 mps 754 mmHg 71%
    11:00 +16°C° 0 mm 0 mps 754 mmHg 67%
    12:00 +17°C° 0 mm 0 mps 754 mmHg 63%
    13:00 +17°C° 0 mm 0 mps 754 mmHg 59%
    14:00 +17°C° 0 mm 0 mps 753 mmHg 62%
    15:00 +18°C° 0 mm 1 mps 753 mmHg 65%
    16:00 +18°C° 0 mm 1 mps 753 mmHg 68%
    17:00 +16°C° 0 mm 2 mps 753 mmHg 72%
    18:00 +15°C° 0 mm 2 mps 753 mmHg 76%
    19:00 +14°C° 0 mm 2 mps 753 mmHg 80%
    20:00 +14°C° 0 mm 2 mps 752 mmHg 82%
    21:00 +13°C° 0 mm 3 mps 752 mmHg 84%
    22:00 +12°C° 0 mm 3 mps 752 mmHg 87%
    23:00 +12°C° 0 mm 3 mps 752 mmHg 88%

    Day after tomorrow, 24 October, Thursday

    Time Temperature Precipitation Wind Pressure Humidity
    00:00 +12°C° 0 mm 3 mps 751 mmHg 90%
    01:00 +12°C° 0 mm 3 mps 751 mmHg 91%
    02:00 +12°C° 0 mm 3 mps 751 mmHg 92%
    03:00 +11°C° 0 mm 3 mps 751 mmHg 93%
    04:00 +11°C° 0 mm 3 mps 750 mmHg 93%
    05:00 +11°C° 0 mm 3 mps 750 mmHg 94%
    06:00 +11°C° 0 mm 4 mps 750 mmHg 94%
    07:00 +11°C° 0 mm 4 mps 749 mmHg 94%
    08:00 +13°C° 0 mm 4 mps 749 mmHg 88%
    09:00 +14°C° 0 mm 4 mps 749 mmHg 81%
    10:00 +16°C° 0 mm 5 mps 749 mmHg 75%
    11:00 +17°C° 0 mm 5 mps 749 mmHg 70%
    12:00 +19°C° 0 mm 5 mps 748 mmHg 66%
    13:00 +20°C° 0 mm 5 mps 748 mmHg 62%
    14:00 +19°C° 0 mm 5 mps 747 mmHg 65%
    15:00 +19°C° 0 mm 4 mps 747 mmHg 67%
    16:00 +18°C° 0 mm 4 mps 747 mmHg 70%
    17:00 +17°C° 0 mm 4 mps 747 mmHg 73%
    18:00 +15°C° 0 mm 4 mps 746 mmHg 76%
    19:00 +14°C° 0 mm 3 mps 746 mmHg 79%
    20:00 +14°C° 0 mm 3 mps 747 mmHg 79%
    21:00 +13°C° 0 mm 3 mps 747 mmHg 79%
    22:00 +13°C° 0 mm 3 mps 747 mmHg 79%
    23:00 +13°C° 0 mm 3 mps 747 mmHg 77%

    25 October, Friday

    Time Temperature Precipitation Wind Pressure Humidity
    00:00 +13°C° 0 mm 3 mps 747 mmHg 74%
    01:00 +13°C° 0 mm 3 mps 747 mmHg 72%
    02:00 +13°C° 0 mm 3 mps 747 mmHg 73%
    03:00 +12°C° 0 mm 3 mps 747 mmHg 74%
    04:00 +12°C° 0 mm 3 mps 747 mmHg 75%
    05:00 +11°C° 0 mm 3 mps 748 mmHg 80%
    06:00 +11°C° 0 mm 4 mps 748 mmHg 86%
    07:00 +11°C° 0 mm 4 mps 749 mmHg 91%
    08:00 +12°C° 0 mm 4 mps 749 mmHg 87%
    09:00 +14°C° 0 mm 4 mps 750 mmHg 83%
    10:00 +15°C° 0 mm 5 mps 750 mmHg 79%
    11:00 +16°C° 0 mm 5 mps 751 mmHg 74%
    12:00 +17°C° 0 mm 5 mps 751 mmHg 68%
    13:00 +19°C° 0 mm 6 mps 752 mmHg 63%
    14:00 +17°C° 0 mm 5 mps 752 mmHg 65%
    15:00 +17°C° 0 mm 4 mps 752 mmHg 68%
    16:00 +16°C° 0 mm 3 mps 752 mmHg 71%
    17:00 +15°C° 0 mm 2 mps 752 mmHg 74%
    18:00 +14°C° 0 mm 2 mps 752 mmHg 78%
    19:00 +13°C° 0 mm 1 mps 753 mmHg 81%
    20:00 +13°C° 0 mm 1 mps 753 mmHg 83%
    21:00 +12°C° 0 mm 1 mps 753 mmHg 84%
    22:00 +12°C° 0 mm 1 mps 753 mmHg 86%
    23:00 +12°C° 0 mm 1 mps 752 mmHg 86%

    26 October, Saturday

    Time Temperature Precipitation Wind Pressure Humidity
    00:00 +12°C° 0 mm 2 mps 752 mmHg 87%
    01:00 +10°C° 0 mm 2 mps 752 mmHg 88%
    02:00 +10°C° 0 mm 2 mps 751 mmHg 89%
    03:00 +10°C° 0 mm 3 mps 751 mmHg 90%
    04:00 +10°C° 0 mm 3 mps 751 mmHg 91%
    05:00 +10°C° 0 mm 4 mps 750 mmHg 90%
    06:00 +10°C° 0 mm 4 mps 750 mmHg 90%
    07:00 +10°C° 0 mm 5 mps 749 mmHg 89%
    08:00 +12°C° 0 mm 5 mps 749 mmHg 82%
    09:00 +14°C° 0 mm 5 mps 749 mmHg 75%
    10:00 +16°C° 0 mm 6 mps 749 mmHg 68%
    11:00 +16°C° 0 mm 6 mps 748 mmHg 64%
    12:00 +17°C° 0 mm 6 mps 748 mmHg 60%
    13:00 +19°C° 0 mm 6 mps 748 mmHg 56%
    14:00 +17°C° 0 mm 5 mps 748 mmHg 60%
    15:00 +16°C° 0 mm 5 mps 747 mmHg 63%
    16:00 +15°C° 0 mm 4 mps 747 mmHg 67%
    17:00 +14°C° 0 mm 4 mps 747 mmHg 69%
    18:00 +14°C° 0 mm 4 mps 747 mmHg 72%
    19:00 +13°C° 0 mm 3 mps 748 mmHg 74%
    20:00 +13°C° 0.1 mm 3 mps 747 mmHg 77%
    21:00 +13°C° 0.1 mm 3 mps 747 mmHg 80%
    22:00 +13°C° 0.1 mm 3 mps 747 mmHg 83%
    23:00 +12°C° 0.5 mm 3 mps 747 mmHg 84%

    27 October, Sunday

    Time Temperature Precipitation Wind Pressure Humidity
    00:00 +11°C° 0.5 mm 3 mps 747 mmHg 86%
    01:00 +11°C° 0.5 mm 3 mps 747 mmHg 87%
    02:00 +11°C° 0.5 mm 3 mps 747 mmHg 86%
    03:00 +10°C° 0.5 mm 4 mps 747 mmHg 86%
    04:00 +10°C° 0.5 mm 4 mps 746 mmHg 85%
    05:00 +8°C° 0.7 mm 5 mps 747 mmHg 84%
    06:00 +8°C° 0.7 mm 6 mps 747 mmHg 82%
    07:00 +6°C° 0.7 mm 7 mps 747 mmHg 81%
    08:00 +6°C° 0.1 mm 7 mps 748 mmHg 77%
    09:00 +6°C° 0.1 mm 7 mps 748 mmHg 73%
    10:00 +5°C° 0.1 mm 7 mps 749 mmHg 69%
    11:00 +6°C° 0 mm 7 mps 749 mmHg 65%
    12:00 +7°C° 0 mm 8 mps 749 mmHg 62%
    13:00 +9°C° 0 mm 8 mps 749 mmHg 58%
    14:00 +7°C° 0 mm 8 mps 749 mmHg 60%
    15:00 +8°C° 0 mm 7 mps 749 mmHg 62%
    16:00 +7°C° 0 mm 6 mps 749 mmHg 63%
    17:00 +7°C° 0 mm 6 mps 749 mmHg 64%
    18:00 +6°C° 0 mm 7 mps 749 mmHg 65%
    19:00 +6°C° 0 mm 7 mps 750 mmHg 65%
    20:00 +6°C° 0 mm 7 mps 750 mmHg 67%
    21:00 +6°C° 0 mm 7 mps 750 mmHg 70%
    22:00 +5°C° 0 mm 7 mps 750 mmHg 72%
    23:00 +5°C° 0 mm 7 mps 750 mmHg 73%

    28 October, Monday

    Time Temperature Precipitation Wind Pressure Humidity
    00:00 +5°C° 0 mm 7 mps 749 mmHg 75%
    01:00 +5°C° 0 mm 7 mps 749 mmHg 77%
    02:00 +4°C° 0 mm 7 mps 749 mmHg 78%
    03:00 +4°C° 0 mm 7 mps 749 mmHg 79%
    04:00 +4°C° 0 mm 6 mps 749 mmHg 80%
    05:00 +3°C° 0 mm 6 mps 749 mmHg 81%
    06:00 +3°C° 0 mm 6 mps 749 mmHg 81%
    07:00 +3°C° 0 mm 6 mps 749 mmHg 82%
    08:00 +4°C° 0 mm 7 mps 749 mmHg 76%
    09:00 +5°C° 0 mm 7 mps 749 mmHg 71%
    10:00 +5°C° 0 mm 8 mps 749 mmHg 65%
    11:00 +6°C° 0 mm 8 mps 749 mmHg 63%
    12:00 +6°C° 0 mm 7 mps 749 mmHg 61%
    13:00 +6°C° 0 mm 7 mps 749 mmHg 59%
    14:00 +6°C° 0 mm 7 mps 749 mmHg 58%
    15:00 +5°C° 0 mm 6 mps 749 mmHg 58%
    16:00 +5°C° 0 mm 6 mps 749 mmHg 58%
    17:00 +5°C° 0 mm 5 mps 749 mmHg 59%
    18:00 +5°C° 0 mm 5 mps 749 mmHg 60%
    19:00 +5°C° 0 mm 5 mps 749 mmHg 61%
    20:00 +3°C° 0 mm 5 mps 749 mmHg 66%
    21:00 +3°C° 0 mm 5 mps 749 mmHg 71%
    22:00 +2°C° 0 mm 5 mps 749 mmHg 75%
    23:00 +2°C° 0 mm 5 mps 749 mmHg 78%
    Show more